Location: Peebles
(55.6412°N, 3.1714°W)
Time: 18:58:28
(UTC+01:00)

DOVE 4 - Pass Details

Date: 07 October 2023
Orbit: 580 x 778 km, 97.7° (Epoch: 23 July)

Event Time Altitude Azimuth Distance (km) Brightness Sun altitude
Rises 23:01:01 0° 18° (NNE) 3,207 ? -34.7°
Reaches altitude 10° 23:03:26 10° 26° (NNE) 2,305 ? -34.9°
Enters shadow 23:03:55 13° 29° (NNE) 2,131 ? -34.9°
